Simultaneous Nadir Overpasses (SNOs) Predictions

Prediction of SNOs between AQUA and GOES-15 Satellite Orbit:

Table of predicted SNOs for the next 14.0 days since TLE Epoch: 4/17/2021
Index Date Time (AQUA) AQUA Lat,Lon GOES-15 Lat,Lon Distance(km) Time Diff (sec)
1 04/17/2021 10:19:14 0.60,-130.85 0.01,-127.96 328.41 80
2 04/19/2021 10:07:02 0.01,-127.89 0.01,-127.89 0.19 80
3 04/21/2021 09:54:50 -0.59,-124.92 0.01,-127.81 328.02 80
4 04/21/2021 22:16:15 -0.49,-130.12 -0.02,-127.78 265.87 80
5 04/23/2021 22:04:03 0.12,-127.16 -0.02,-127.70 61.95 80
6 04/25/2021 21:51:51 0.73,-124.20 -0.01,-127.62 389.26 80
7 04/26/2021 10:13:05 0.37,-129.35 0.02,-127.62 196.83 80
8 04/28/2021 10:00:53 -0.24,-126.39 0.01,-127.53 129.40 80
9 04/28/2021 22:22:17 -0.89,-131.58 -0.02,-127.48 466.58 80
10 04/30/2021 09:48:42 -0.86,-123.43 0.01,-127.43 454.95 80
11 04/30/2021 22:10:05 -0.26,-128.62 -0.02,-127.38 140.97 80
